DECAYED

OBJECT AN, 57040 (Decayed)

Orbit data source: Space-Track

You're viewing an Uncataloged Satellite

Recently launched and/or uncataloged satellites may have evolving metadata. Metadata may include but not limited to: Owner, Maufacturer, Bus, Motor, and Mission.

OBJECT AN, 57040 was a Chinese satellite in LEO that was launched on Thu, 15 Jun 2023 UTC via a CHANG ZHENG 2D launch vehicle from the Taiyaun Space Center, China (TSC). Unknown objects in Earth's orbit typically refer to objects detected orbiting the Earth but have not yet been identified or cataloged. These objects could be anything from previously untracked satellites, spent rocket stages, debris from satellite collisions, or even natural meteoroids temporarily captured by Earth's gravity. This object's orbit decayed before it could be identified.

Loading next visibility...
Identifier
57040, 2023-085AN
Orbit
Decayed
Country
Flag of CNCN / PRC
Related business
None
Manufacturer
Unknown
Mission
Decayed Commercial Imaging
Bus & Motor
Unknown
Mass
Unknown
Launch date (UTC)
2023-06-15 (3 years ago)
Launch vehicle
CHANG ZHENG 2D
Launch site
Taiyaun Space Center, China (TSC)
Object type
Unknown
Shape & HBR
Box, 0.8 m
Radar Cross Section
2.000 m², Medium (>0.1 m² and < 1m²)

Expand to show TLE details & history
Last TLE update: 9 months ago

TLE from 9 months ago
0 OBJECT AN
1 57040U 23085AN  25265.82574283  .08678925  25348-5  13807-2 0  9996
2 57040  97.4455  28.7963 0011791 276.4231  83.5722 16.33610566127072
Epoch: 2025-09-22T19:49Z
TLE epoch observation values (Epoch: 2025-09-22T19:49:04.180Z)
Latitude
-0.00004°
Longitude
89.60452°
Altitude
185.239 km
Speed
7.796 km/s
True Right ascension
01h 55m 11s
True Declination
0° 00' 00"
Sunlit
Object was in full shadow at epoch
Visualization orbit readout
Latitude
Unknown
Longitude
Unknown
Altitude
Unknown
Speed
Unknown
Apparent Right ascension
Unknown
Apparent Declination
Unknown
Sunlit
N/A
Visualization observer readout
Local Sidereal Time
21:30:31
Azimuth
Unknown
Elevation
Unknown
Doppler factor
Unknown
Orbital elements
Apogee altitude
187.405 km
Perigee altitude
171.94 km
Semi-major axis
6,557.81 km
Eccentricity
0.00118
Inclination
97.4455°
RAAN
28.7963°
Arg. of periapsis
276.4231°
True anomaly
83.70649°
Mean anomaly
83.5722°
Eccentric anomaly
83.63934°
Mean motion
4.087 °/min
Orbital period
88.08 mins
BSTAR
0.0013807
Loading maneuver chart data...
Computing Atmospheric mass density...
Loading historical data...
Loading historical data...
Loading historical data...
Loading historical data...
Loading historical data...
Loading historical data...
Loading historical data...

Documentation

Showing up to 5 results
|